Regional Weather Roundup
Issued by NWS

Home | Current Version | Previous Version | Graphics & Text | Print | Product List | Glossary On
Versions: 1 2 3 4 5 6 7 8 9 10 11 12 13 14 15 16 17 18 19 20 21 22 23 24 25 26 27 28 29 30 31 32 33 34 35 36 37 38 39 40 41 42 43 44 45 46 47 48 49 50
000
ASUS43 KTOP 230408
RWRKS

WEATHER ROUNDUP FOR KANSAS
NATIONAL WEATHER SERVICE GOODLAND KS
1000 PM CST MON DEC 22 2014

NOTE:  "FAIR" INDICATES FEW OR NO CLOUDS BELOW 12,000 FEET WITH NO
SIGNIFICANT WEATHER AND/OR OBSTRUCTIONS TO VISIBILITY.

KSZ001>006-013>018-027>032-041>047-230500-
NORTHWEST KANSAS

CITY           SKY/WX    TMP DP  RH WIND       PRES   REMARKS
GOODLAND       PTCLDY    34  24  67 NW22G30   29.71S WCI  22
HAYS           CLEAR     34  19  55 W14       29.64R WCI  24
HILL CITY      PTCLDY    39  24  55 W20       29.64R WCI  29
RUSSELL        FAIR      40  26  57 W18       29.60R WCI  31
$$

KSZ061>065-074>080-084>089-230500-
SOUTHWEST KANSAS

CITY           SKY/WX    TMP DP  RH WIND       PRES   REMARKS
DODGE CITY     CLEAR     36  22  56 W14       29.71S WCI  27
ELKHART          N/A     35  23  61 NW9         N/A
GARDEN CITY    PTCLDY    34  24  67 NW13      29.74R WCI  25
GREAT BEND     CLEAR     37  25  60 W14       29.66R WCI  29
LIBERAL        CLEAR     30  19  64 NW10      29.77R WCI  21
PRATT          CLEAR     34  28  80 W10       29.69R WCI  26
$$

KSZ066>073-081>083-090>101-230500-
SOUTHEAST KANSAS

CITY           SKY/WX    TMP DP  RH WIND       PRES   REMARKS
CHANUTE        CLEAR     39  37  92 SW9       29.62S
COFFEYVILLE    CLEAR     39  37  92 S9        29.66R
HUTCHINSON     PTCLDY    33  27  78 SW5       29.64R
MEDICINE LODGE   N/A     38  27  64 W10       29.69R WCI  31
NEWTON         PTCLDY    37  27  65 SW7       29.64R
PARSONS        CLEAR     38  36  92 S5        29.66R
WICHITA INTL   PTCLDY    43  32  65 W12       29.64R
WICHITA JABRA  MOCLDY    41  33  73 W6        29.64R
WICHITA MCCONL PTCLDY    42  33  68 W6        29.64R
WINFIELD       FAIR      41  35  79 SW9       29.66R
$$

KSZ007>012-019>026-033>040-048>060-102>105-230500-
NORTHEAST KANSAS

CITY           SKY/WX    TMP DP  RH WIND       PRES   REMARKS
CONCORDIA      CLOUDY    40  33  76 W10       29.57R WCI  33
EMPORIA        CLEAR     36  33  89 SW10      29.59R WCI  28
LAWRENCE       CLEAR     40  36  86 W10       29.55R WCI  33
MANHATTAN      CLOUDY    40  33  76 W6        29.57R
MARYSVILLE     PTCLDY    37  32  81 W8        29.53S
OLATHE IND     CLEAR     39  37  92 SW9       29.55R
OLATHE EXE     CLEAR     41  38  89 SW8       29.54R
SALINA         PTCLDY    38  30  73 SW12      29.59R WCI  30
TOPEKA BILLARD CLEAR     43  35  73 SW6       29.55S
TOPEKA FORBES  CLEAR     38  33  82 SW9       29.55R
$$



USA.gov is the U.S. government's official web portal to all federal, state and local government web resources and services.